[[{"header":{"parameterUnit":"m.s-1","parameterCategory":1,"la1":30.2991,"la2":30.254,"lo1":-89.0895,"lo2":-89.0444,"dy":0.0017,"dx":0.0017,"nx":28,"ny":28,"refTime":"2023-10-21T21:00:00:Z","depth":0,"parameterNumber":2,"parameterNumberName":"U-component_of_WINDS"},"data":[0,0,0,0,0,0,0,0,0,0,0,0,0,0,0,0,0,0,0,0,0,0,0,0,0,0,0,0,0,0,0,0,0,0,0,0,0,0,0,0,0,0,0,0,0,0,0,0,0,0,0,0,0,0,0,0,0,0,0.8389,0.839,0,0.8477,0.8478,0.8479,0.8487,0.8486,0.8485,0.8484,0.8579,0.8582,0.8586,0,0,0,0,0,0,0,0,0,0,0,0,0,0.8234,0.8237,0.8389,0.839,0.8391,0.8476,0.8478,0.8479,0.8487,0.8486,0.8485,0.8484,0.8578,0.8582,0.8586,0,0,0,0,0,0,0,0,0,0,0,0,0,0.831,0.8238,0.8389,0.8405,0.8408,0.8476,0.8478,0.8479,0.8487,0.8486,0.8484,0.8483,0.8577,0.8582,0.8587,0.8646,0,0,0.8602,0.8605,0,0,0,0,0,0,0,0,0.8305,0.8315,0.8402,0.8404,0.8407,0.8469,0.8458,0.8535,0.8487,0.8457,0.8484,0.8482,0.8544,0.8552,0.8571,0.8651,0.8655,0.8603,0.8606,0.8608,0.861,0,0,0,0,0,0,0,0.83,0.8312,0.8424,0.8403,0.8406,0.841,0.8419,0.8473,0.8508,0.846,0.846,0.847,0.8545,0.8567,0.8574,0.8656,0.8603,0.8607,0.861,0.8612,0.879,0.8792,0,0,0,0,0,0,0.8291,0.8307,0.8421,0.8426,0.8351,0.8414,0.8424,0.8451,0.8507,0.8514,0.8472,0.847,0.8558,0.8568,0.8577,0.8651,0.8608,0.8613,0.8616,0.8789,0.8791,0.8792,0,0,0,0,0,0,0.8288,0.8301,0.8417,0.8367,0.8382,0.8418,0.8448,0.8453,0.8474,0.8516,0.8523,0.8486,0.8558,0.857,0.8629,0.8655,0.8615,0.862,0.8787,0.8789,0.8792,0.8799,0,0,0,0,0,0,0.8283,0.83,0.8321,0.8367,0.8385,0.8466,0.8449,0.8456,0.8483,0.8482,0.8532,0.8539,0.8558,0.8621,0.8634,0.8661,0.8624,0.8785,0.8788,0.8791,0.8797,0.8802,0.8806,0,0,0,0,0,0.8277,0.8321,0.8322,0.8336,0.8412,0.8468,0.8478,0.8497,0.8484,0.8508,0.8534,0.8537,0.865,0.8627,0.8642,0.8671,0.8783,0.8787,0.8791,0.8795,0.8801,0.8806,0,0,0,0,0,0,0.8279,0.8328,0.8329,0.8389,0.8424,0.8469,0.8498,0.8503,0.8543,0.8541,0.8565,0.8576,0.8635,0.8659,0.8633,0.8732,0.8715,0.8722,0.8714,0.872,0.8724,0.8717,0.8628,0,0,0,0,0,0.8286,0.8325,0.8366,0.8415,0.8432,0.8462,0.8487,0.8499,0.8537,0.8552,0.8583,0.8621,0.8665,0.8694,0.8737,0.88,0.8812,0.8828,0.8832,0.8835,0.8841,0.8878,0.8885,0.8805,0.8805,0.8805,0,0,0.8302,0.8333,0.8356,0.8416,0.8444,0.8486,0.8475,0.8519,0.8551,0.8559,0.8616,0.8641,0.8685,0.8747,0.8776,0.8769,0.8866,0.884,0.8843,0.8847,0.8882,0.889,0.8897,0.8807,0.8807,0.8806,0,0,0.8351,0.8378,0.8421,0.845,0.8492,0.8512,0.8523,0.8567,0.8583,0.864,0.8648,0.8687,0.8762,0.8793,0.8819,0.888,0.8885,0.8894,0.8918,0.8953,0.8959,0.8965,0.8987,0.8995,0.89,0.89,0.89,0,0.8365,0.8426,0.8444,0.8488,0.8514,0.8522,0.8568,0.8595,0.865,0.8669,0.866,0.8755,0.8785,0.8855,0.8869,0.889,0.8904,0.8889,0.8956,0.8962,0.8968,0.899,0.8998,0.89,0.89,0.89,0.89,0,0.8442,0.8484,0.8515,0.8566,0.8596,0.8641,0.8667,0.8695,0.8705,0.8726,0.8785,0.8822,0.8872,0.889,0.89,0.8961,0.8955,0.8951,0.8935,0.8976,0.8997,0.9006,0.8902,0.8901,0.8901,0.8901,0,0,0.8495,0.8555,0.8566,0.8589,0.8637,0.8671,0.8717,0.8764,0.8789,0.8827,0.8867,0.893,0.8926,0.8956,0.897,0.9,0.9047,0.8992,0.8994,0.9002,0.9118,0.9121,0.913,0.905,0.9052,0.9053,0.9114,0,0.8549,0.8629,0.8646,0.8715,0.8756,0.8764,0.8804,0.8839,0.886,0.8899,0.8923,0.8967,0.8959,0.8977,0.9007,0.9035,0.9071,0.9031,0.9089,0.9091,0.9078,0.9141,0.9144,0.92,0.9122,0.9124,0.9125,0,0.8624,0.8662,0.8734,0.8777,0.8795,0.883,0.8875,0.8912,0.8952,0.8965,0.8998,0.9008,0.9058,0.9039,0.9109,0.9081,0.9106,0.9123,0.9126,0.9132,0.911,0.915,0.9218,0.9226,0.9138,0.9137,0.9136,0,0.8656,0.8725,0.8778,0.8797,0.8849,0.8873,0.8896,0.8935,0.8962,0.9003,0.9021,0.9067,0.9093,0.9129,0.9153,0.9137,0.9221,0.9204,0.9235,0.9234,0.9252,0.9251,0.9326,0.9268,0.9267,0.9267,0.9267,0,0.8715,0.8759,0.8792,0.8825,0.8875,0.8896,0.8946,0.8969,0.9003,0.9041,0.9052,0.9088,0.9117,0.9157,0.9176,0.9231,0.9243,0.9256,0.9261,0.9255,0.9254,0.9272,0.9269,0.927,0.9269,0.9269,0.9268,0,0.8759,0.8783,0.884,0.8884,0.8896,0.8931,0.8969,0.9002,0.9023,0.9071,0.9084,0.9119,0.9167,0.9194,0.9255,0.9268,0.9329,0.9332,0.9315,0.9317,0.9346,0.9343,0.9436,0.945,0.9382,0.9383,0.9383,0,0.8795,0.8829,0.8876,0.8902,0.8924,0.8966,0.8993,0.9016,0.9045,0.9093,0.912,0.9169,0.9209,0.9286,0.9317,0.9364,0.9368,0.9398,0.9376,0.9369,0.9369,0.9367,0.9371,0.9402,0.9402,0.9403,0.9403,0,0.8858,0.8868,0.8907,0.895,0.8983,0.9018,0.9054,0.9075,0.9103,0.9136,0.9184,0.9215,0.9277,0.9325,0.9375,0.94,0.9407,0.941,0.9419,0.9414,0.9403,0.941,0.9326,0.9408,0.9407,0.9407,0.9407,0.9406,0.8899,0.893,0.8968,0.9011,0.904,0.9073,0.9105,0.913,0.9171,0.9221,0.9233,0.9284,0.9325,0.9391,0.9418,0.946,0.9455,0.9469,0.9472,0.9475,0.9476,0.9396,0.9469,0.9469,0.9469,0.9469,0.9469,0,0.8963,0.8987,0.9027,0.9075,0.911,0.9111,0.9151,0.918,0.9225,0.9261,0.9299,0.9356,0.9403,0.9438,0.9486,0.9513,0.9518,0.9525,0.9524,0.953,0.9478,0.9465,0.9521,0.9521,0.9521,0.9521,0.9521,0.9521,0.8999,0.9052,0.9066,0.9133,0.9158,0.9207,0.923,0.9261,0.929,0.9351,0.939,0.9412,0.9448,0.9499,0.9543,0.9553,0.957,0.9577,0.9587,0.9539,0.9533,0.9528,0.9516,0.9581,0.9581,0.9635,0.9636,0.9636]},{"header":{"parameterUnit":"m.s-1","parameterCategory":1,"la1":30.2991,"la2":30.254,"lo1":-89.0895,"lo2":-89.0444,"dy":0.0017,"dx":0.0017,"nx":28,"ny":28,"refTime":"2023-10-21T21:00:00:Z","depth":0,"parameterNumber":3,"parameterNumberName":"V-component_of_WINDS"},"data":[0,0,0,0,0,0,0,0,0,0,0,0,0,0,0,0,0,0,0,0,0,0,0,0,0,0,0,0,0,0,0,0,0,0,0,0,0,0,0,0,0,0,0,0,0,0,0,0,0,0,0,0,0,0,0,0,0,0,1.5424,1.5424,0,1.5408,1.5408,1.5408,1.5398,1.5398,1.5398,1.5398,1.538,1.538,1.5379,0,0,0,0,0,0,0,0,0,0,0,0,0,1.5444,1.5444,1.5424,1.5424,1.5424,1.5408,1.5408,1.5408,1.5398,1.5398,1.5398,1.5398,1.538,1.538,1.5379,0,0,0,0,0,0,0,0,0,0,0,0,0,1.5432,1.5444,1.5424,1.5417,1.5416,1.5408,1.5408,1.5408,1.5398,1.5398,1.5398,1.5398,1.538,1.538,1.5379,1.5376,0,0,1.5377,1.5377,0,0,0,0,0,0,0,0,1.5433,1.5432,1.5418,1.5418,1.5417,1.5405,1.5408,1.5397,1.5398,1.5405,1.5398,1.5398,1.5388,1.5387,1.5384,1.5375,1.5375,1.5377,1.5377,1.5376,1.5376,0,0,0,0,0,0,0,1.5434,1.5432,1.5418,1.5418,1.5417,1.5414,1.5412,1.5406,1.5397,1.5404,1.5404,1.5402,1.5388,1.5385,1.5384,1.5374,1.5377,1.5376,1.5376,1.5376,1.536,1.536,0,0,0,0,0,0,1.5436,1.5433,1.5418,1.5417,1.5425,1.5414,1.5412,1.5409,1.5397,1.5395,1.5402,1.5402,1.5386,1.5384,1.5383,1.5377,1.5376,1.5376,1.5375,1.536,1.536,1.536,0,0,0,0,0,0,1.5437,1.5435,1.5419,1.5425,1.5423,1.5413,1.541,1.5409,1.5405,1.5395,1.5394,1.5401,1.5386,1.5384,1.5378,1.5377,1.5375,1.5375,1.536,1.536,1.536,1.5367,0,0,0,0,0,0,1.5437,1.5435,1.5435,1.5425,1.5422,1.5415,1.541,1.5408,1.5405,1.5404,1.5394,1.5392,1.5386,1.5379,1.5377,1.5376,1.5374,1.536,1.536,1.536,1.5367,1.5368,1.5368,0,0,0,0,0,1.5438,1.5438,1.5435,1.5433,1.5422,1.5415,1.5413,1.5406,1.5405,1.5403,1.5397,1.5392,1.5377,1.5378,1.5376,1.5375,1.536,1.536,1.536,1.5367,1.5367,1.5368,0,0,0,0,0,0,1.5447,1.5436,1.5433,1.543,1.5423,1.5413,1.5412,1.5407,1.5401,1.5401,1.5392,1.539,1.5384,1.5379,1.538,1.537,1.5368,1.5368,1.5374,1.5374,1.5375,1.5376,1.5374,0,0,0,0,0,1.5449,1.5445,1.5435,1.5433,1.543,1.5421,1.5418,1.5413,1.5406,1.5403,1.5396,1.5389,1.5382,1.5378,1.5371,1.5366,1.5363,1.5364,1.5365,1.5365,1.5365,1.536,1.536,1.536,1.536,1.536,0,0,1.5452,1.5446,1.5444,1.5434,1.5429,1.5424,1.5419,1.5414,1.541,1.5402,1.5396,1.539,1.5381,1.5375,1.5372,1.537,1.5364,1.5365,1.5365,1.5365,1.536,1.5359,1.5359,1.536,1.536,1.536,0,0,1.5456,1.5451,1.5448,1.5442,1.5434,1.5428,1.5427,1.5417,1.5413,1.5407,1.54,1.5394,1.5384,1.5377,1.5372,1.5371,1.5366,1.5369,1.5371,1.5367,1.5367,1.5366,1.5365,1.5364,1.5369,1.5369,1.5369,0,1.5461,1.5454,1.5447,1.5442,1.5437,1.543,1.5426,1.5421,1.541,1.5407,1.5406,1.5391,1.5384,1.5376,1.5375,1.5372,1.537,1.537,1.5367,1.5367,1.5367,1.5365,1.5365,1.5369,1.5369,1.5369,1.5369,0,1.546,1.5455,1.5453,1.5443,1.5438,1.5434,1.5425,1.5421,1.5416,1.541,1.5402,1.5394,1.5385,1.5383,1.5378,1.5373,1.5372,1.5369,1.5367,1.5367,1.5365,1.5365,1.537,1.537,1.537,1.537,0,0,1.5469,1.5455,1.5454,1.5449,1.5438,1.5434,1.5428,1.542,1.5416,1.5408,1.5403,1.5393,1.539,1.5384,1.5379,1.5375,1.5372,1.5372,1.5371,1.5371,1.5364,1.5366,1.5365,1.5369,1.5369,1.5369,1.5364,0,1.547,1.5461,1.5454,1.5447,1.5441,1.5433,1.5428,1.542,1.5414,1.5407,1.54,1.5393,1.539,1.5386,1.5382,1.5374,1.5371,1.5374,1.5362,1.5362,1.5364,1.5365,1.5367,1.5363,1.5364,1.5364,1.5364,0,1.5471,1.5464,1.5456,1.5445,1.5442,1.5438,1.5428,1.5423,1.5413,1.5408,1.5402,1.5395,1.5388,1.5386,1.5374,1.5377,1.5371,1.5366,1.5366,1.5364,1.5363,1.5362,1.5362,1.5361,1.5363,1.5363,1.5363,0,1.5477,1.5466,1.5459,1.5455,1.5442,1.5439,1.5433,1.5424,1.5418,1.541,1.5406,1.5396,1.5391,1.5383,1.5374,1.5373,1.5362,1.536,1.5357,1.5358,1.5355,1.5356,1.5354,1.5353,1.5353,1.5353,1.5353,0,1.5479,1.5474,1.5462,1.5458,1.5452,1.5443,1.5437,1.543,1.5421,1.5415,1.5407,1.5401,1.539,1.5382,1.5374,1.5365,1.5363,1.5358,1.5356,1.5358,1.5359,1.5354,1.5354,1.5353,1.5353,1.5353,1.5353,0,1.5485,1.5477,1.5469,1.5457,1.5453,1.5449,1.5439,1.5434,1.5426,1.5418,1.5416,1.5404,1.5394,1.5384,1.5371,1.5366,1.5356,1.5354,1.5359,1.5358,1.5355,1.5355,1.535,1.5349,1.535,1.535,1.535,0,1.5486,1.5483,1.547,1.5465,1.546,1.5452,1.5447,1.5437,1.5431,1.5419,1.5415,1.5405,1.5396,1.538,1.537,1.5359,1.5356,1.5355,1.5354,1.5356,1.5354,1.5355,1.5353,1.5355,1.5355,1.5355,1.5355,0,1.5489,1.5485,1.5478,1.5468,1.5462,1.5454,1.5446,1.5442,1.543,1.5424,1.5414,1.5407,1.5393,1.5382,1.537,1.5362,1.5356,1.5355,1.5354,1.5356,1.5359,1.5356,1.5359,1.5355,1.5355,1.5355,1.5355,1.5355,1.5493,1.5488,1.5478,1.547,1.5463,1.5455,1.5449,1.5441,1.5432,1.5421,1.5415,1.5404,1.5393,1.5376,1.5368,1.5359,1.5357,1.5356,1.5355,1.5354,1.5354,1.5361,1.5357,1.5357,1.5357,1.5357,1.5357,0,1.5494,1.5487,1.548,1.5468,1.5461,1.5456,1.5446,1.544,1.5431,1.5422,1.5413,1.54,1.5389,1.5377,1.5365,1.536,1.5356,1.5357,1.5357,1.5355,1.5357,1.5359,1.5359,1.5359,1.5359,1.5359,1.5359,1.5359,1.5495,1.5487,1.5481,1.5468,1.5461,1.5451,1.5446,1.5438,1.543,1.5416,1.5407,1.5399,1.5388,1.5375,1.5364,1.5361,1.5356,1.5357,1.5353,1.5355,1.5355,1.5355,1.5356,1.5356,1.5356,1.5351,1.5351,1.5351]}]]